Вернуться в каталог

TRANSIT 4A

АктивенНавигацияLEO
NORAD 116·PAYLOAD·🇺🇸 United States

Запущен Jun 29, 1961 с Cape Canaveral Space Force Station

Loading…

Ближайшие Пролёты (ближайшие 24 часа)

TLE

СвежийSource: Space-Track

Эпоха: Sep 9, 2026, 19:15 UTC

1 00116U 61015A   26252.80235202 -.00000013  00000-0  48879-4 0  9995
2 00116  66.8099  43.7717 0079474 217.6161 141.9345 13.92343246308489

Отслеживайте TRANSIT 4A в реальном времени с AllMySat

Download on the App Store